Location: Byszew
(52.1813°N, 19.2693°E)
Time: 04:18:41
(UTC+00:00)

CAS-4B - Pass Details

Date: 03 July 2022
Orbit: 522 x 536 km, 43.0° (Epoch: 17 August)

Event Time Altitude Azimuth Distance (km) Brightness Sun altitude
Exits shadow 00:45:13 14° 187° (S) 1,531 ? -10.5°
Maximum altitude 00:46:41 16° 162° (SSE) 1,406 ? -10.4°
Drops below altitude 10° 00:49:13 10° 123° (ESE) 1,763 ? -10.3°
Sets 00:52:06 0° 102° (ESE) 2,657 ? -10.0°
